Location: Acheville
(50.3840°N, 2.8827°E)
Time: 13:06:07
(UTC+00:00)

CENTAUR R/B - Pass Details

Date: 24 October 2021
Orbit: 728 x 1459 km, 63.4° (Epoch: 26 November)

Event Time Altitude Azimuth Distance (km) Brightness Sun altitude
Rises 21:40:05 0° 316° (NW) 4,141 6.5 -45.3°
Reaches altitude 10° 21:42:44 10° 313° (NW) 3,263 5.8 -45.6°
Enters shadow 21:46:55 35° 301° (WNW) 2,045 4.3 -46.0°
